Regional Weather Roundup
Issued by NWS Sterling, VA

Home | Current Version | Previous Version | Text Only | Print | Product List | Glossary Off
Versions: 1 2 3 4 5 6 7 8 9 10 11 12 13 14 15 16 17 18 19 20 21 22 23 24 25 26 27 28

000
ASUS41 KLWX 291410
RWRLWX

REGIONAL WEATHER ROUNDUP
NATIONAL WEATHER SERVICE BALTIMORE MD/WASHINGTON DC
1000 AM EDT WED OCT 29 2014

Note: "FAIR" indicates few or no clouds below 12,000 feet
with no significant weather and/or obstructions to visibility.
 TC=TEMPERATURE CELSIUS

 * =Non NWS site. Station does not report precipitation (e.g. rain,
    snow, etc.), thunder, or fog.

DCZ001-MDZ009-015-VAZ040>042-051-053>054-291500-
WASHINGTON METRO

CITY           SKY/WX    TMP DP  RH WIND       PRES   REMARKS
WASHINGTON NAT CLOUDY    67  52  58 NW8       29.95R
DULLES         PTSUNNY   63  50  62 N9        29.96R
ANDREWS AFB    CLOUDY    66  53  64 NW12      29.94R
FT BELVOIR     CLOUDY    65  53  65 NW7       29.95S
QUANTICO       CLOUDY    66  58  75 CALM      29.95S
COLLEGE PARK*  CLOUDY    64  54  68 NW5       29.94R
LEESBURG*      PTSUNNY   63  54  72 NW16G23   29.98R
MANASSAS*      SUNNY     63  55  77 N8        29.95S
GAITHERSBURG*  PTSUNNY   61  46  59 NW16      30.00R

$$

MDZ006>007-011-014-291500-
BALTIMORE METRO

CITY           SKY/WX    TMP DP  RH WIND       PRES   REMARKS
BWI AIRPORT    CLOUDY    64  52  64 NW10G16   29.94R
MD SCIENCE CTR   N/A     66  49  54 MISG      29.94R
MARTIN STATE   PTSUNNY   63  63 100 CALM      29.94S
ANNAPOLIS      CLOUDY    65  58  78 NW6       29.93R
FORT MEADE*    CLOUDY    63  55  77 NW6       29.96R

$$

MDZ012-015-019>023-291500-
MARYLAND EASTERN SHORE

CITY           SKY/WX    TMP DP  RH WIND       PRES   REMARKS
OCEAN CITY     CLOUDY    67  60  78 SW12      29.95S
SALISBURY      PTSUNNY   70  60  70 SW8       29.94S
BAY BRIDGE AP*   N/A     66  57  72 SW6       29.93R
CAMBRIDGE*     PTSUNNY   72  61  68 SW8       29.93S
EASTON*        PTSUNNY   68  63  83 SW7       29.96S

$$

MDZ017>025-291500-
SOUTHERN MARYLAND

CITY           SKY/WX    TMP DP  RH WIND       PRES   REMARKS
PATUXENT RIVER CLOUDY    68  58  70 W9        29.94R
ST INIGOES     PTSUNNY   68  57  68 W7        29.93R
LEONARDTOWN*   PTSUNNY   66  55  68 W6        29.96R

$$

MDZ003>005-291500-
NORTH CENTRAL MARYLAND

CITY           SKY/WX    TMP DP  RH WIND       PRES   REMARKS
FREDERICK*     PTSUNNY   66  46  48 NW8G16    30.01R
HAGERSTOWN APT LGT RAIN  54  49  83 W7        29.99R
WESTMINSTER*   PTSUNNY   61  48  63 W10G16    29.97R

$$

MDZ501>502-291500-
WESTERN MARYLAND

CITY           SKY/WX    TMP DP  RH WIND       PRES   REMARKS
OAKLAND*       CLOUDY    45 N/A N/A W8G18     30.01S
CUMBERLAND*    CLOUDY    54  52  94 CALM        N/A

$$

VAZ025>031-291500-
SHENANDOAH VALLEY

CITY           SKY/WX    TMP DP  RH WIND       PRES   REMARKS
WINCHESTER*    LGT RAIN  55  45  67 NW10G16   29.99R
FRONT ROYAL*   CLOUDY    59  50  72 N8        29.97R
LURAY*         LGT RAIN  61  54  77 N7        29.98R
NEW MARKET*    CLOUDY    58  53  84 N5        29.98R
STAUNTON*      LGT RAIN  60  53  78 N3        29.99R
WAYNESBORO*    CLOUDY    63  52  69 CALM      29.97R

$$

WVZ021-048>050-054>055-291500-
EASTERN WEST VIRGINIA PANHANDLE

CITY           SKY/WX    TMP DP  RH WIND       PRES   REMARKS
MARTINSBURG    LGT RAIN  55  47  74 NW7       30.00R
PETERSBURG*    DRIZZLE   56  50  82 CALM      30.03R

$$

VAZ036>039-050-291500-
CENTRAL FOOTHILLS

CITY           SKY/WX    TMP DP  RH WIND       PRES   REMARKS
CHARLOTTESVILL CLOUDY    65  55  70 SW3       29.93S
CULPEPER*      PTSUNNY   64  57  77 NE6       29.94F
ORANGE*        CLOUDY    64  57  77 CALM      29.95S
GORDONSVILLE*  FAIR      62  56  82 SW6       29.93S
WARRENTON*     FAIR      66  60  81 NE6       29.94S

$$

VAZ055>057-291500-
NORTH AND CENTRAL PIEDMONT

CITY           SKY/WX    TMP DP  RH WIND       PRES   REMARKS
FREDERICKSBRG* CLOUDY    68  59  73 CALM      29.93F
STAFFORD*      CLOUDY    65  58  75 CALM      29.98S

$$

NCZ024-NYZ072-PAZ021-071-VAZ022-071-291500-
OTHER REGIONAL OBSERVATIONS

CITY           SKY/WX    TMP DP  RH WIND       PRES   REMARKS
NEW YORK CITY  PTSUNNY   66  56  70 W6        29.91S
PHILADELPHIA   CLOUDY    65  58  78 SW7       29.91S
PITTSBURGH     CLOUDY    51  42  71 W9        30.00R
ROANOKE        CLOUDY    60  47  61 NW15G25   30.05R
RICHMOND       CLOUDY    67  59  75 S9        29.95F
RALEIGH        PTSUNNY   67  57  70 SW12      30.03S

$$

ANZ530>537-291500-
MARINE OBSERVATIONS

STATION/POSITION TIME  TEMP    WIND        PRES
                       AIR SEA DIR/SP/G
                 (UTC) (F)     (DEG/KT/KT) (MB)
THOMAS PT LIGHT  1400   64 62  250/  4/  5 1014.6R
BALT KEY BRIDGE  1400   64     300/  7/ 10 1013.3R
COVE POINT       1400   67     260/ 11/ 15 1013.5F
LEWISETTA        1400   67 61  240/ 13/ 17 1013.1F
SOLOMONS ISLAND  1400      63                N/A
PINEY POINT      1400          340/  7/  7   N/A

$$




USA.gov is the U.S. government's official web portal to all federal, state and local government web resources and services.